User: anonymous   Login
Location: Cincinnati Observatory Center
(39.1389°N, 84.4225°W)
Time: 08:40:28
(UTC-04:00)
Language:

COSMOS 2428 - Orbit

View from above orbital plane
View from above orbital plane
View from above satellite
View from above satellite

Ground track
Ground track

The orbit data is extracted from the following two-line orbital elements,

1 31792U 07029A   14298.14617994  .00000422  00000-0  25434-3 0  1187
2 31792 070.9722 277.2596 0011710 285.3981 200.6360 14.12452740377661
Epoch (UTC): 25 October 2014 03:30:29
Eccentricity: 0.0011710
inclination: 70.9722°
perigee height: 842 km
apogee height: 859 km
right ascension of ascending node: 277.2596°
argument of perigee: 285.3981°
revolutions per day: 14.12452740
mean anomaly at epoch: 200.6360°
orbit number at epoch: 37766

The dashed part of the orbit path shows where the satellite is in the earth's shadow,  

DLR